• In Österreich
  • Länderverzeichnis
  • Für 7 Tage
  • Wassertemperatur
  • Satellitenkarten
  • Wetterkarte
  • News
  • Widgets
  • user-avatar
    Anmelden

    Stündliche Wetter Yusheno

    Heute, 21 Juli, Samstag

    Zeit Temperatur Niederschläge Wind Luftdruck Luftfeuchtigkeit
    00:00 +18°C° 0 mm 0 m/S 744 mmHg 97%
    01:00 +17°C° 0 mm 0 m/S 744 mmHg 97%
    02:00 +17°C° 0 mm 0 m/S 744 mmHg 98%
    03:00 +17°C° 0 mm 0 m/S 744 mmHg 98%
    04:00 +17°C° 0 mm 0 m/S 745 mmHg 98%
    05:00 +18°C° 0 mm 0 m/S 745 mmHg 98%
    06:00 +19°C° 0 mm 0 m/S 745 mmHg 94%
    07:00 +21°C° 0 mm 0 m/S 745 mmHg 89%
    08:00 +22°C° 0 mm 0 m/S 745 mmHg 85%
    09:00 +24°C° 0,2 mm 0 m/S 745 mmHg 79%
    10:00 +25°C° 0,2 mm 0 m/S 745 mmHg 73%
    11:00 +27°C° 0,2 mm 0 m/S 745 mmHg 67%
    12:00 +27°C° 0,3 mm 0 m/S 745 mmHg 65%
    13:00 +27°C° 0,3 mm 0 m/S 745 mmHg 63%
    14:00 +28°C° 0,3 mm 0 m/S 745 mmHg 62%
    15:00 +29°C° 1 mm 1 m/S 745 mmHg 69%
    16:00 +28°C° 1 mm 1 m/S 745 mmHg 76%
    17:00 +27°C° 1 mm 1 m/S 745 mmHg 84%
    18:00 +26°C° 1 mm 1 m/S 745 mmHg 87%
    19:00 +24°C° 1 mm 1 m/S 745 mmHg 89%
    20:00 +23°C° 1 mm 1 m/S 746 mmHg 92%
    21:00 +22°C° 0,1 mm 1 m/S 746 mmHg 94%
    22:00 +22°C° 0,1 mm 1 m/S 746 mmHg 95%
    23:00 +21°C° 0,1 mm 1 m/S 746 mmHg 96%

    Morgen, 22 Juli, Sonntag

    Zeit Temperatur Niederschläge Wind Luftdruck Luftfeuchtigkeit
    00:00 +21°C° 0,1 mm 1 m/S 746 mmHg 97%
    01:00 +21°C° 0,1 mm 1 m/S 746 mmHg 97%
    02:00 +20°C° 0,1 mm 1 m/S 746 mmHg 97%
    03:00 +20°C° 0 mm 1 m/S 746 mmHg 97%
    04:00 +20°C° 0 mm 1 m/S 746 mmHg 97%
    05:00 +20°C° 0 mm 1 m/S 746 mmHg 97%
    06:00 +22°C° 0,2 mm 1 m/S 746 mmHg 95%
    07:00 +23°C° 0,2 mm 1 m/S 746 mmHg 92%
    08:00 +24°C° 0,2 mm 2 m/S 747 mmHg 89%
    09:00 +24°C° 1,3 mm 2 m/S 747 mmHg 88%
    10:00 +25°C° 1,3 mm 2 m/S 747 mmHg 87%
    11:00 +25°C° 1,3 mm 3 m/S 747 mmHg 85%
    12:00 +25°C° 0,6 mm 3 m/S 747 mmHg 83%
    13:00 +25°C° 0,6 mm 3 m/S 747 mmHg 81%
    14:00 +25°C° 0,6 mm 3 m/S 747 mmHg 79%
    15:00 +25°C° 0,2 mm 3 m/S 747 mmHg 79%
    16:00 +25°C° 0,2 mm 3 m/S 747 mmHg 79%
    17:00 +24°C° 0,2 mm 3 m/S 747 mmHg 78%
    18:00 +24°C° 0 mm 2 m/S 747 mmHg 82%
    19:00 +23°C° 0 mm 2 m/S 747 mmHg 86%
    20:00 +21°C° 0 mm 2 m/S 747 mmHg 90%
    21:00 +21°C° 0 mm 2 m/S 747 mmHg 91%
    22:00 +20°C° 0 mm 2 m/S 747 mmHg 93%
    23:00 +20°C° 0 mm 2 m/S 747 mmHg 95%

    übermorgen, 23 Juli, Montag

    Zeit Temperatur Niederschläge Wind Luftdruck Luftfeuchtigkeit
    00:00 +20°C° 0,1 mm 2 m/S 747 mmHg 95%
    01:00 +20°C° 0,1 mm 2 m/S 748 mmHg 96%
    02:00 +20°C° 0,1 mm 2 m/S 748 mmHg 96%
    03:00 +19°C° 0 mm 2 m/S 748 mmHg 96%
    04:00 +19°C° 0 mm 2 m/S 748 mmHg 96%
    05:00 +19°C° 0 mm 2 m/S 748 mmHg 96%
    06:00 +20°C° 0 mm 3 m/S 748 mmHg 91%
    07:00 +21°C° 0 mm 3 m/S 748 mmHg 86%
    08:00 +22°C° 0 mm 3 m/S 748 mmHg 80%
    09:00 +24°C° 0,1 mm 3 m/S 748 mmHg 77%
    10:00 +25°C° 0,1 mm 3 m/S 748 mmHg 74%
    11:00 +25°C° 0,1 mm 4 m/S 748 mmHg 72%
    12:00 +25°C° 0,4 mm 4 m/S 748 mmHg 72%
    13:00 +25°C° 0,4 mm 4 m/S 748 mmHg 72%
    14:00 +25°C° 0,4 mm 4 m/S 748 mmHg 73%
    15:00 +25°C° 0,1 mm 3 m/S 748 mmHg 72%
    16:00 +24°C° 0,1 mm 3 m/S 748 mmHg 71%
    17:00 +24°C° 0,1 mm 3 m/S 748 mmHg 71%
    18:00 +23°C° 0 mm 2 m/S 748 mmHg 77%
    19:00 +21°C° 0 mm 2 m/S 748 mmHg 83%
    20:00 +19°C° 0 mm 2 m/S 748 mmHg 89%
    21:00 +19°C° 0 mm 2 m/S 748 mmHg 92%
    22:00 +18°C° 0 mm 2 m/S 748 mmHg 94%
    23:00 +17°C° 0 mm 2 m/S 749 mmHg 97%

    24 Juli, Dienstag

    Zeit Temperatur Niederschläge Wind Luftdruck Luftfeuchtigkeit
    00:00 +17°C° 0 mm 2 m/S 749 mmHg 97%
    01:00 +17°C° 0 mm 2 m/S 749 mmHg 97%
    02:00 +17°C° 0 mm 2 m/S 749 mmHg 97%
    03:00 +17°C° 0 mm 2 m/S 749 mmHg 96%
    04:00 +17°C° 0 mm 2 m/S 749 mmHg 96%
    05:00 +17°C° 0 mm 2 m/S 749 mmHg 95%
    06:00 +18°C° 0 mm 2 m/S 749 mmHg 91%
    07:00 +19°C° 0 mm 2 m/S 749 mmHg 88%
    08:00 +20°C° 0 mm 3 m/S 749 mmHg 84%
    09:00 +20°C° 0 mm 2 m/S 749 mmHg 83%
    10:00 +20°C° 0 mm 2 m/S 749 mmHg 81%
    11:00 +21°C° 0 mm 2 m/S 749 mmHg 79%
    12:00 +21°C° 0 mm 2 m/S 749 mmHg 79%
    13:00 +23°C° 0 mm 2 m/S 749 mmHg 78%
    14:00 +23°C° 0 mm 2 m/S 749 mmHg 78%
    15:00 +23°C° 0,1 mm 2 m/S 749 mmHg 79%
    16:00 +23°C° 0,1 mm 2 m/S 749 mmHg 81%
    17:00 +22°C° 0,1 mm 3 m/S 749 mmHg 82%
    18:00 +21°C° 0,2 mm 2 m/S 749 mmHg 86%
    19:00 +20°C° 0,2 mm 2 m/S 750 mmHg 90%
    20:00 +20°C° 0,2 mm 2 m/S 750 mmHg 94%
    21:00 +19°C° 0,4 mm 2 m/S 750 mmHg 95%
    22:00 +19°C° 0,4 mm 2 m/S 750 mmHg 97%
    23:00 +18°C° 0,4 mm 2 m/S 750 mmHg 98%

    25 Juli, Mittwoch

    Zeit Temperatur Niederschläge Wind Luftdruck Luftfeuchtigkeit
    00:00 +18°C° 0,6 mm 2 m/S 749 mmHg 98%
    01:00 +18°C° 0,6 mm 2 m/S 749 mmHg 98%
    02:00 +18°C° 0,6 mm 2 m/S 749 mmHg 98%
    03:00 +18°C° 0,1 mm 2 m/S 749 mmHg 98%
    04:00 +18°C° 0,1 mm 2 m/S 749 mmHg 98%
    05:00 +18°C° 0,1 mm 2 m/S 749 mmHg 98%
    06:00 +19°C° 0,3 mm 2 m/S 749 mmHg 96%
    07:00 +20°C° 0,3 mm 3 m/S 750 mmHg 95%
    08:00 +21°C° 0,3 mm 3 m/S 750 mmHg 93%
    09:00 +21°C° 0,1 mm 3 m/S 750 mmHg 91%
    10:00 +22°C° 0,1 mm 3 m/S 750 mmHg 90%
    11:00 +22°C° 0,1 mm 3 m/S 750 mmHg 88%
    12:00 +22°C° 0,4 mm 3 m/S 750 mmHg 88%
    13:00 +22°C° 0,4 mm 4 m/S 750 mmHg 88%
    14:00 +22°C° 0,4 mm 4 m/S 750 mmHg 88%
    15:00 +21°C° 0,2 mm 3 m/S 750 mmHg 89%
    16:00 +21°C° 0,2 mm 3 m/S 750 mmHg 90%
    17:00 +20°C° 0,2 mm 3 m/S 750 mmHg 91%
    18:00 +20°C° 0,1 mm 3 m/S 750 mmHg 92%
    19:00 +19°C° 0,1 mm 3 m/S 750 mmHg 93%
    20:00 +19°C° 0,1 mm 3 m/S 750 mmHg 94%
    21:00 +19°C° 0,1 mm 3 m/S 750 mmHg 95%
    22:00 +19°C° 0,1 mm 3 m/S 750 mmHg 96%
    23:00 +19°C° 0,1 mm 3 m/S 750 mmHg 96%

    26 Juli, Donnerstag

    Zeit Temperatur Niederschläge Wind Luftdruck Luftfeuchtigkeit
    00:00 +19°C° 0 mm 3 m/S 751 mmHg 96%
    01:00 +19°C° 0 mm 3 m/S 751 mmHg 97%
    02:00 +19°C° 0 mm 3 m/S 751 mmHg 97%
    03:00 +19°C° 0 mm 3 m/S 751 mmHg 97%
    04:00 +19°C° 0 mm 3 m/S 751 mmHg 96%
    05:00 +19°C° 0 mm 3 m/S 751 mmHg 96%
    06:00 +19°C° 0,1 mm 3 m/S 751 mmHg 94%
    07:00 +20°C° 0,1 mm 3 m/S 752 mmHg 93%
    08:00 +20°C° 0,1 mm 4 m/S 752 mmHg 91%
    09:00 +21°C° 0,2 mm 3 m/S 752 mmHg 91%
    10:00 +21°C° 0,2 mm 3 m/S 752 mmHg 90%
    11:00 +22°C° 0,2 mm 3 m/S 752 mmHg 90%
    12:00 +24°C° 0,1 mm 3 m/S 752 mmHg 84%
    13:00 +26°C° 0,1 mm 3 m/S 753 mmHg 78%
    14:00 +27°C° 0,1 mm 3 m/S 753 mmHg 72%
    15:00 +27°C° 0,2 mm 3 m/S 753 mmHg 72%
    16:00 +28°C° 0,2 mm 3 m/S 753 mmHg 72%
    17:00 +28°C° 0,2 mm 3 m/S 753 mmHg 71%
    18:00 +27°C° 0,1 mm 2 m/S 753 mmHg 77%
    19:00 +25°C° 0,1 mm 2 m/S 753 mmHg 84%
    20:00 +24°C° 0,1 mm 2 m/S 753 mmHg 90%
    21:00 +23°C° 0 mm 2 m/S 753 mmHg 92%
    22:00 +21°C° 0 mm 2 m/S 753 mmHg 94%
    23:00 +21°C° 0 mm 2 m/S 754 mmHg 97%
    Mehr zeigen